sat.trackr.live / text

‹ back to catalog

STARLINK-34121

NORAD 63961 · 2025-099K

PAYLOAD ACTIVE UNKNOWN

§ Identity

Operator
Country
US
Launch date
2025-05-13
Launch site
AFETR
Launch vehicle
Mass (kg)
RCS (m²)

Purposes: comms

External: N2YO · Heavens-Above · Gunter

§ Orbital elements

Epoch: 2026-09-20T23:35:17.624832Z

Period
94.27 min
Inclination
42.9972°
Eccentricity
0.0000938
Mean motion
15.27590742 rev/d
Perigee alt
482.4 km
Apogee alt
483.7 km
Semi-major
6,861.2 km
B*
5.2200e-4
RAAN
153.3209°
Arg perigee
120.9585°
Mean anomaly
239.1359°
Rev number
7,720

§ Raw data

STARLINK-341211 63961U 25099K   26263.98284288  .00014134  00000+0  52200-3 0  99922 63961  42.9972 153.3209 0000938 120.9585 239.1359 15.27590742 77203

JSON: /api/v1/satellites/63961 · /tle

For live sub-satellite position, see the globe view (requires WebGL).

§ Visibility from observer

Set your observer location to see the next 7 days of passes ≥ 10°. The values pass through the URL so the page stays shareable.

No JS? Fill the form by hand. The geolocation button needs JavaScript.